Location: Diebersbach
(48.5163°N, 8.0558°E)
Time: 14:56:39
(UTC+00:00)

Cosmos 1842 Rocket - Pass Details

Date: 20 June 2021
Orbit: 606 x 633 km, 82.5° (Epoch: 30 July)

Event Time Altitude Azimuth Distance (km) Brightness Sun altitude
Rises 01:24:42 0° 342° (NNW) 2,878 7.7 -13.6°
Reaches altitude 10° 01:27:04 10° 332° (NNW) 1,970 6.6 -13.4°
Maximum altitude 01:30:57 32° 270° (W) 1,050 4.5 -13.1°
Enters shadow 01:33:16 19° 220° (SW) 1,445 4.8 -12.9°
